<?xml version="1.0" encoding="UTF-8" standalone="no" ?>
<gpx xmlns="http://www.topografix.com/GPX/1/1" xmlns:xsi="http://www.w3.org/2001/XMLSchema-instance" xsi:schemaLocation="http://www.topografix.com/GPX/1/1 http://www.topografix.com/GPX/1/1/gpx.xsd" version="1.1" creator="VisuGPX - https://www.visugpx.com">
  <metadata>
    <name>Sucé_BoucleNordEst_15km</name>
    <desc><![CDATA[Version courte 15km de la boucle Nord-Ouest si mauvaise conditions Météo]]></desc>
  </metadata>
  <wpt lat="47.38016" lon="-1.52907">
    <ele>22.9</ele>
    <name><![CDATA[Bifurcation possible]]></name>
    <desc><![CDATA[Point de décision version longue ou courte suivant conditions météo]]></desc>
    <type><![CDATA[danger]]></type>
  </wpt>
  <trk>
    <name><![CDATA[Suce_BoucleNordOuest_20.9km-11431393]]></name>
    <extensions>
      <line xmlns="http://www.topografix.com/GPX/gpx_style/0/2">
        <color>0000FF</color>
        <width>4</width>
      </line>
    </extensions>
    <trkseg>
      <trkpt lat="47.34248" lon="-1.53097">
        <ele>20</ele>
        <time>2024-02-04T11:52:13Z</time>
      </trkpt>
      <trkpt lat="47.3426" lon="-1.5307">
        <ele>20</ele>
        <time>2024-02-04T11:52:42Z</time>
      </trkpt>
      <trkpt lat="47.34278" lon="-1.53053">
        <ele>21</ele>
        <time>2024-02-04T11:53:11Z</time>
      </trkpt>
      <trkpt lat="47.34291" lon="-1.52999">
        <ele>20</ele>
        <time>2024-02-04T11:54:03Z</time>
      </trkpt>
      <trkpt lat="47.34286" lon="-1.52967">
        <ele>20</ele>
        <time>2024-02-04T11:54:32Z</time>
      </trkpt>
      <trkpt lat="47.34318" lon="-1.52926">
        <ele>20</ele>
        <time>2024-02-04T11:55:29Z</time>
      </trkpt>
      <trkpt lat="47.34352" lon="-1.52898">
        <ele>20</ele>
        <time>2024-02-04T11:56:21Z</time>
      </trkpt>
      <trkpt lat="47.34367" lon="-1.52879">
        <ele>20</ele>
        <time>2024-02-04T11:56:47Z</time>
      </trkpt>
      <trkpt lat="47.34385" lon="-1.52863">
        <ele>20</ele>
        <time>2024-02-04T11:57:15Z</time>
      </trkpt>
      <trkpt lat="47.34395" lon="-1.52841">
        <ele>20</ele>
        <time>2024-02-04T11:57:39Z</time>
      </trkpt>
      <trkpt lat="47.34394" lon="-1.52811">
        <ele>20</ele>
        <time>2024-02-04T11:58:06Z</time>
      </trkpt>
      <trkpt lat="47.34398" lon="-1.52783">
        <ele>20</ele>
        <time>2024-02-04T11:58:32Z</time>
      </trkpt>
      <trkpt lat="47.34405" lon="-1.52755">
        <ele>20</ele>
        <time>2024-02-04T11:58:59Z</time>
      </trkpt>
      <trkpt lat="47.34417" lon="-1.52731">
        <ele>20</ele>
        <time>2024-02-04T11:59:26Z</time>
      </trkpt>
      <trkpt lat="47.34415" lon="-1.52703">
        <ele>21</ele>
        <time>2024-02-04T11:59:52Z</time>
      </trkpt>
      <trkpt lat="47.34427" lon="-1.5268">
        <ele>21</ele>
        <time>2024-02-04T12:00:18Z</time>
      </trkpt>
      <trkpt lat="47.34455" lon="-1.52638">
        <ele>21</ele>
        <time>2024-02-04T12:01:11Z</time>
      </trkpt>
      <trkpt lat="47.345" lon="-1.52562">
        <ele>22</ele>
        <time>2024-02-04T12:02:42Z</time>
      </trkpt>
      <trkpt lat="47.34582" lon="-1.52467">
        <ele>24</ele>
        <time>2024-02-04T12:05:01Z</time>
      </trkpt>
      <trkpt lat="47.34595" lon="-1.52446">
        <ele>24</ele>
        <time>2024-02-04T12:05:27Z</time>
      </trkpt>
      <trkpt lat="47.34611" lon="-1.52433">
        <ele>24</ele>
        <time>2024-02-04T12:05:52Z</time>
      </trkpt>
      <trkpt lat="47.34629" lon="-1.5243">
        <ele>24</ele>
        <time>2024-02-04T12:06:16Z</time>
      </trkpt>
      <trkpt lat="47.34651" lon="-1.52432">
        <ele>24</ele>
        <time>2024-02-04T12:06:45Z</time>
      </trkpt>
      <trkpt lat="47.34688" lon="-1.52428">
        <ele>24</ele>
        <time>2024-02-04T12:07:35Z</time>
      </trkpt>
      <trkpt lat="47.34733" lon="-1.5243">
        <ele>24</ele>
        <time>2024-02-04T12:08:35Z</time>
      </trkpt>
      <trkpt lat="47.34751" lon="-1.52427">
        <ele>24</ele>
        <time>2024-02-04T12:08:59Z</time>
      </trkpt>
      <trkpt lat="47.34773" lon="-1.52431">
        <ele>24</ele>
        <time>2024-02-04T12:09:28Z</time>
      </trkpt>
      <trkpt lat="47.34789" lon="-1.52487">
        <ele>25</ele>
        <time>2024-02-04T12:10:23Z</time>
      </trkpt>
      <trkpt lat="47.34801" lon="-1.5251">
        <ele>26</ele>
        <time>2024-02-04T12:10:50Z</time>
      </trkpt>
      <trkpt lat="47.34842" lon="-1.52517">
        <ele>26</ele>
        <time>2024-02-04T12:11:45Z</time>
      </trkpt>
      <trkpt lat="47.34882" lon="-1.52519">
        <ele>26</ele>
        <time>2024-02-04T12:12:38Z</time>
      </trkpt>
      <trkpt lat="47.34925" lon="-1.52529">
        <ele>26</ele>
        <time>2024-02-04T12:13:36Z</time>
      </trkpt>
      <trkpt lat="47.34946" lon="-1.52539">
        <ele>26</ele>
        <time>2024-02-04T12:14:06Z</time>
      </trkpt>
      <trkpt lat="47.34969" lon="-1.52534">
        <ele>26</ele>
        <time>2024-02-04T12:14:37Z</time>
      </trkpt>
      <trkpt lat="47.35022" lon="-1.52493">
        <ele>25</ele>
        <time>2024-02-04T12:15:57Z</time>
      </trkpt>
      <trkpt lat="47.3504" lon="-1.52482">
        <ele>25</ele>
        <time>2024-02-04T12:16:23Z</time>
      </trkpt>
      <trkpt lat="47.3506" lon="-1.52474">
        <ele>25</ele>
        <time>2024-02-04T12:16:50Z</time>
      </trkpt>
      <trkpt lat="47.35094" lon="-1.52452">
        <ele>24</ele>
        <time>2024-02-04T12:17:40Z</time>
      </trkpt>
      <trkpt lat="47.35111" lon="-1.52436">
        <ele>23</ele>
        <time>2024-02-04T12:18:07Z</time>
      </trkpt>
      <trkpt lat="47.35123" lon="-1.52412">
        <ele>23</ele>
        <time>2024-02-04T12:18:34Z</time>
      </trkpt>
      <trkpt lat="47.3513" lon="-1.52381">
        <ele>22</ele>
        <time>2024-02-04T12:19:03Z</time>
      </trkpt>
      <trkpt lat="47.35135" lon="-1.5232">
        <ele>21</ele>
        <time>2024-02-04T12:19:59Z</time>
      </trkpt>
      <trkpt lat="47.35151" lon="-1.52303">
        <ele>21</ele>
        <time>2024-02-04T12:20:25Z</time>
      </trkpt>
      <trkpt lat="47.35169" lon="-1.52307">
        <ele>20</ele>
        <time>2024-02-04T12:20:49Z</time>
      </trkpt>
      <trkpt lat="47.35251" lon="-1.52312">
        <ele>13</ele>
        <time>2024-02-04T12:22:39Z</time>
      </trkpt>
      <trkpt lat="47.35272" lon="-1.52317">
        <ele>12</ele>
        <time>2024-02-04T12:23:07Z</time>
      </trkpt>
      <trkpt lat="47.35295" lon="-1.52308">
        <ele>12</ele>
        <time>2024-02-04T12:23:39Z</time>
      </trkpt>
      <trkpt lat="47.35329" lon="-1.52282">
        <ele>11</ele>
        <time>2024-02-04T12:24:30Z</time>
      </trkpt>
      <trkpt lat="47.35402" lon="-1.52241">
        <ele>17</ele>
        <time>2024-02-04T12:26:14Z</time>
      </trkpt>
      <trkpt lat="47.35423" lon="-1.52233">
        <ele>18</ele>
        <time>2024-02-04T12:26:43Z</time>
      </trkpt>
      <trkpt lat="47.35442" lon="-1.52216">
        <ele>20</ele>
        <time>2024-02-04T12:27:13Z</time>
      </trkpt>
      <trkpt lat="47.35456" lon="-1.52194">
        <ele>20</ele>
        <time>2024-02-04T12:27:40Z</time>
      </trkpt>
      <trkpt lat="47.35468" lon="-1.52168">
        <ele>21</ele>
        <time>2024-02-04T12:28:09Z</time>
      </trkpt>
      <trkpt lat="47.35489" lon="-1.52151">
        <ele>21</ele>
        <time>2024-02-04T12:28:41Z</time>
      </trkpt>
      <trkpt lat="47.35508" lon="-1.52141">
        <ele>21</ele>
        <time>2024-02-04T12:29:08Z</time>
      </trkpt>
      <trkpt lat="47.35532" lon="-1.52139">
        <ele>21</ele>
        <time>2024-02-04T12:29:40Z</time>
      </trkpt>
      <trkpt lat="47.35575" lon="-1.52125">
        <ele>21</ele>
        <time>2024-02-04T12:30:38Z</time>
      </trkpt>
      <trkpt lat="47.35609" lon="-1.52098">
        <ele>20</ele>
        <time>2024-02-04T12:31:30Z</time>
      </trkpt>
      <trkpt lat="47.35632" lon="-1.52104">
        <ele>19</ele>
        <time>2024-02-04T12:32:01Z</time>
      </trkpt>
      <trkpt lat="47.35648" lon="-1.52121">
        <ele>18</ele>
        <time>2024-02-04T12:32:27Z</time>
      </trkpt>
      <trkpt lat="47.35708" lon="-1.52168">
        <ele>16</ele>
        <time>2024-02-04T12:33:58Z</time>
      </trkpt>
      <trkpt lat="47.35727" lon="-1.52186">
        <ele>16</ele>
        <time>2024-02-04T12:34:28Z</time>
      </trkpt>
      <trkpt lat="47.35846" lon="-1.5227">
        <ele>14</ele>
        <time>2024-02-04T12:37:24Z</time>
      </trkpt>
      <trkpt lat="47.35869" lon="-1.52266">
        <ele>14</ele>
        <time>2024-02-04T12:37:55Z</time>
      </trkpt>
      <trkpt lat="47.35911" lon="-1.52248">
        <ele>14</ele>
        <time>2024-02-04T12:38:53Z</time>
      </trkpt>
      <trkpt lat="47.35929" lon="-1.52269">
        <ele>14</ele>
        <time>2024-02-04T12:39:24Z</time>
      </trkpt>
      <trkpt lat="47.35941" lon="-1.52292">
        <ele>14</ele>
        <time>2024-02-04T12:39:50Z</time>
      </trkpt>
      <trkpt lat="47.35958" lon="-1.5227">
        <ele>13</ele>
        <time>2024-02-04T12:40:20Z</time>
      </trkpt>
      <trkpt lat="47.35993" lon="-1.52233">
        <ele>12</ele>
        <time>2024-02-04T12:41:18Z</time>
      </trkpt>
      <trkpt lat="47.36013" lon="-1.52224">
        <ele>11</ele>
        <time>2024-02-04T12:41:46Z</time>
      </trkpt>
      <trkpt lat="47.36033" lon="-1.52222">
        <ele>11</ele>
        <time>2024-02-04T12:42:13Z</time>
      </trkpt>
      <trkpt lat="47.36054" lon="-1.52227">
        <ele>11</ele>
        <time>2024-02-04T12:42:41Z</time>
      </trkpt>
      <trkpt lat="47.36077" lon="-1.52224">
        <ele>10</ele>
        <time>2024-02-04T12:43:12Z</time>
      </trkpt>
      <trkpt lat="47.36096" lon="-1.52232">
        <ele>10</ele>
        <time>2024-02-04T12:43:38Z</time>
      </trkpt>
      <trkpt lat="47.36117" lon="-1.52236">
        <ele>11</ele>
        <time>2024-02-04T12:44:06Z</time>
      </trkpt>
      <trkpt lat="47.36138" lon="-1.52244">
        <ele>11</ele>
        <time>2024-02-04T12:44:35Z</time>
      </trkpt>
      <trkpt lat="47.36203" lon="-1.5226">
        <ele>11</ele>
        <time>2024-02-04T12:46:03Z</time>
      </trkpt>
      <trkpt lat="47.3622" lon="-1.52271">
        <ele>11</ele>
        <time>2024-02-04T12:46:28Z</time>
      </trkpt>
      <trkpt lat="47.36237" lon="-1.5229">
        <ele>11</ele>
        <time>2024-02-04T12:46:56Z</time>
      </trkpt>
      <trkpt lat="47.36275" lon="-1.52402">
        <ele>12</ele>
        <time>2024-02-04T12:48:50Z</time>
      </trkpt>
      <trkpt lat="47.36299" lon="-1.52453">
        <ele>11</ele>
        <time>2024-02-04T12:49:46Z</time>
      </trkpt>
      <trkpt lat="47.36321" lon="-1.52509">
        <ele>10</ele>
        <time>2024-02-04T12:50:44Z</time>
      </trkpt>
      <trkpt lat="47.36338" lon="-1.52523">
        <ele>10</ele>
        <time>2024-02-04T12:51:10Z</time>
      </trkpt>
      <trkpt lat="47.36358" lon="-1.52544">
        <ele>10</ele>
        <time>2024-02-04T12:51:43Z</time>
      </trkpt>
      <trkpt lat="47.36418" lon="-1.52639">
        <ele>8</ele>
        <time>2024-02-04T12:53:40Z</time>
      </trkpt>
      <trkpt lat="47.36437" lon="-1.52633">
        <ele>8</ele>
        <time>2024-02-04T12:54:06Z</time>
      </trkpt>
      <trkpt lat="47.36476" lon="-1.5263">
        <ele>8</ele>
        <time>2024-02-04T12:54:59Z</time>
      </trkpt>
      <trkpt lat="47.36516" lon="-1.52611">
        <ele>9</ele>
        <time>2024-02-04T12:55:55Z</time>
      </trkpt>
      <trkpt lat="47.36535" lon="-1.52598">
        <ele>10</ele>
        <time>2024-02-04T12:56:23Z</time>
      </trkpt>
      <trkpt lat="47.36568" lon="-1.52559">
        <ele>11</ele>
        <time>2024-02-04T12:57:19Z</time>
      </trkpt>
      <trkpt lat="47.36598" lon="-1.52512">
        <ele>11</ele>
        <time>2024-02-04T12:58:17Z</time>
      </trkpt>
      <trkpt lat="47.36611" lon="-1.52485">
        <ele>10</ele>
        <time>2024-02-04T12:58:47Z</time>
      </trkpt>
      <trkpt lat="47.36628" lon="-1.52428">
        <ele>10</ele>
        <time>2024-02-04T12:59:44Z</time>
      </trkpt>
      <trkpt lat="47.36634" lon="-1.52396">
        <ele>10</ele>
        <time>2024-02-04T13:00:14Z</time>
      </trkpt>
      <trkpt lat="47.3665" lon="-1.52233">
        <ele>11</ele>
        <time>2024-02-04T13:02:42Z</time>
      </trkpt>
      <trkpt lat="47.36672" lon="-1.52175">
        <ele>11</ele>
        <time>2024-02-04T13:03:43Z</time>
      </trkpt>
      <trkpt lat="47.36698" lon="-1.52123">
        <ele>10</ele>
        <time>2024-02-04T13:04:41Z</time>
      </trkpt>
      <trkpt lat="47.36753" lon="-1.51981">
        <ele>8</ele>
        <time>2024-02-04T13:07:09Z</time>
      </trkpt>
      <trkpt lat="47.36802" lon="-1.51837">
        <ele>9</ele>
        <time>2024-02-04T13:09:34Z</time>
      </trkpt>
      <trkpt lat="47.36806" lon="-1.51804">
        <ele>9</ele>
        <time>2024-02-04T13:10:05Z</time>
      </trkpt>
      <trkpt lat="47.36802" lon="-1.51714">
        <ele>9</ele>
        <time>2024-02-04T13:11:26Z</time>
      </trkpt>
      <trkpt lat="47.36804" lon="-1.51684">
        <ele>10</ele>
        <time>2024-02-04T13:11:53Z</time>
      </trkpt>
      <trkpt lat="47.36823" lon="-1.51678">
        <ele>10</ele>
        <time>2024-02-04T13:12:19Z</time>
      </trkpt>
      <trkpt lat="47.36844" lon="-1.51676">
        <ele>10</ele>
        <time>2024-02-04T13:12:48Z</time>
      </trkpt>
      <trkpt lat="47.36888" lon="-1.51676">
        <ele>10</ele>
        <time>2024-02-04T13:13:46Z</time>
      </trkpt>
      <trkpt lat="47.36948" lon="-1.51671">
        <ele>11</ele>
        <time>2024-02-04T13:15:06Z</time>
      </trkpt>
      <trkpt lat="47.37015" lon="-1.51672">
        <ele>12</ele>
        <time>2024-02-04T13:16:36Z</time>
      </trkpt>
      <trkpt lat="47.37031" lon="-1.51691">
        <ele>12</ele>
        <time>2024-02-04T13:17:03Z</time>
      </trkpt>
      <trkpt lat="47.3705" lon="-1.517">
        <ele>12</ele>
        <time>2024-02-04T13:17:30Z</time>
      </trkpt>
      <trkpt lat="47.37069" lon="-1.51702">
        <ele>12</ele>
        <time>2024-02-04T13:17:55Z</time>
      </trkpt>
      <trkpt lat="47.37087" lon="-1.51711">
        <ele>13</ele>
        <time>2024-02-04T13:18:21Z</time>
      </trkpt>
      <trkpt lat="47.37106" lon="-1.51699">
        <ele>13</ele>
        <time>2024-02-04T13:18:48Z</time>
      </trkpt>
      <trkpt lat="47.37148" lon="-1.51626">
        <ele>14</ele>
        <time>2024-02-04T13:20:15Z</time>
      </trkpt>
      <trkpt lat="47.3716" lon="-1.51599">
        <ele>15</ele>
        <time>2024-02-04T13:20:44Z</time>
      </trkpt>
      <trkpt lat="47.3719" lon="-1.51552">
        <ele>13</ele>
        <time>2024-02-04T13:21:42Z</time>
      </trkpt>
      <trkpt lat="47.37232" lon="-1.51476">
        <ele>11</ele>
        <time>2024-02-04T13:23:11Z</time>
      </trkpt>
      <trkpt lat="47.37263" lon="-1.51434">
        <ele>10</ele>
        <time>2024-02-04T13:24:07Z</time>
      </trkpt>
      <trkpt lat="47.37307" lon="-1.51423">
        <ele>9</ele>
        <time>2024-02-04T13:25:07Z</time>
      </trkpt>
      <trkpt lat="47.37351" lon="-1.51424">
        <ele>9</ele>
        <time>2024-02-04T13:26:05Z</time>
      </trkpt>
      <trkpt lat="47.37367" lon="-1.5141">
        <ele>10</ele>
        <time>2024-02-04T13:26:30Z</time>
      </trkpt>
      <trkpt lat="47.37399" lon="-1.51365">
        <ele>11</ele>
        <time>2024-02-04T13:27:29Z</time>
      </trkpt>
      <trkpt lat="47.37411" lon="-1.51339">
        <ele>12</ele>
        <time>2024-02-04T13:27:58Z</time>
      </trkpt>
      <trkpt lat="47.37417" lon="-1.5131">
        <ele>12</ele>
        <time>2024-02-04T13:28:25Z</time>
      </trkpt>
      <trkpt lat="47.37418" lon="-1.51279">
        <ele>11</ele>
        <time>2024-02-04T13:28:53Z</time>
      </trkpt>
      <trkpt lat="47.37424" lon="-1.51247">
        <ele>11</ele>
        <time>2024-02-04T13:29:23Z</time>
      </trkpt>
      <trkpt lat="47.3742" lon="-1.51217">
        <ele>10</ele>
        <time>2024-02-04T13:29:51Z</time>
      </trkpt>
      <trkpt lat="47.37425" lon="-1.51151">
        <ele>9</ele>
        <time>2024-02-04T13:30:51Z</time>
      </trkpt>
      <trkpt lat="47.37424" lon="-1.51118">
        <ele>9</ele>
        <time>2024-02-04T13:31:21Z</time>
      </trkpt>
      <trkpt lat="47.37428" lon="-1.51086">
        <ele>8</ele>
        <time>2024-02-04T13:31:50Z</time>
      </trkpt>
      <trkpt lat="47.37416" lon="-1.51057">
        <ele>8</ele>
        <time>2024-02-04T13:32:21Z</time>
      </trkpt>
      <trkpt lat="47.3744" lon="-1.50931">
        <ele>7</ele>
        <time>2024-02-04T13:34:19Z</time>
      </trkpt>
      <trkpt lat="47.37451" lon="-1.50906">
        <ele>6</ele>
        <time>2024-02-04T13:34:46Z</time>
      </trkpt>
      <trkpt lat="47.37486" lon="-1.50873">
        <ele>6</ele>
        <time>2024-02-04T13:35:41Z</time>
      </trkpt>
      <trkpt lat="47.37506" lon="-1.50864">
        <ele>6</ele>
        <time>2024-02-04T13:36:09Z</time>
      </trkpt>
      <trkpt lat="47.37549" lon="-1.50871">
        <ele>6</ele>
        <time>2024-02-04T13:37:07Z</time>
      </trkpt>
      <trkpt lat="47.3757" lon="-1.50868">
        <ele>6</ele>
        <time>2024-02-04T13:37:35Z</time>
      </trkpt>
      <trkpt lat="47.37585" lon="-1.50848">
        <ele>6</ele>
        <time>2024-02-04T13:38:02Z</time>
      </trkpt>
      <trkpt lat="47.37623" lon="-1.50777">
        <ele>7</ele>
        <time>2024-02-04T13:39:24Z</time>
      </trkpt>
      <trkpt lat="47.3764" lon="-1.50726">
        <ele>8</ele>
        <time>2024-02-04T13:40:15Z</time>
      </trkpt>
      <trkpt lat="47.3764" lon="-1.50693">
        <ele>8</ele>
        <time>2024-02-04T13:40:45Z</time>
      </trkpt>
      <trkpt lat="47.37651" lon="-1.5067">
        <ele>9</ele>
        <time>2024-02-04T13:41:11Z</time>
      </trkpt>
      <trkpt lat="47.37735" lon="-1.50667">
        <ele>11</ele>
        <time>2024-02-04T13:43:03Z</time>
      </trkpt>
      <trkpt lat="47.37755" lon="-1.5066">
        <ele>11</ele>
        <time>2024-02-04T13:43:30Z</time>
      </trkpt>
      <trkpt lat="47.37816" lon="-1.50653">
        <ele>14</ele>
        <time>2024-02-04T13:44:52Z</time>
      </trkpt>
      <trkpt lat="47.37838" lon="-1.50653">
        <ele>14</ele>
        <time>2024-02-04T13:45:21Z</time>
      </trkpt>
      <trkpt lat="47.37881" lon="-1.50645">
        <ele>13</ele>
        <time>2024-02-04T13:46:19Z</time>
      </trkpt>
      <trkpt lat="47.37904" lon="-1.5065">
        <ele>13</ele>
        <time>2024-02-04T13:46:50Z</time>
      </trkpt>
      <trkpt lat="47.3792" lon="-1.50669">
        <ele>14</ele>
        <time>2024-02-04T13:47:17Z</time>
      </trkpt>
      <trkpt lat="47.37939" lon="-1.50654">
        <ele>12</ele>
        <time>2024-02-04T13:47:46Z</time>
      </trkpt>
      <trkpt lat="47.3796" lon="-1.50653">
        <ele>10</ele>
        <time>2024-02-04T13:48:14Z</time>
      </trkpt>
      <trkpt lat="47.37974" lon="-1.50676">
        <ele>9</ele>
        <time>2024-02-04T13:48:42Z</time>
      </trkpt>
      <trkpt lat="47.3801" lon="-1.50707">
        <ele>8</ele>
        <time>2024-02-04T13:49:38Z</time>
      </trkpt>
      <trkpt lat="47.3803" lon="-1.50714">
        <ele>7</ele>
        <time>2024-02-04T13:50:05Z</time>
      </trkpt>
      <trkpt lat="47.38049" lon="-1.50711">
        <ele>6</ele>
        <time>2024-02-04T13:50:31Z</time>
      </trkpt>
      <trkpt lat="47.38072" lon="-1.50719">
        <ele>5</ele>
        <time>2024-02-04T13:51:02Z</time>
      </trkpt>
      <trkpt lat="47.38091" lon="-1.50734">
        <ele>5</ele>
        <time>2024-02-04T13:51:31Z</time>
      </trkpt>
      <trkpt lat="47.38122" lon="-1.50765">
        <ele>6</ele>
        <time>2024-02-04T13:52:21Z</time>
      </trkpt>
      <trkpt lat="47.38142" lon="-1.50772">
        <ele>6</ele>
        <time>2024-02-04T13:52:48Z</time>
      </trkpt>
      <trkpt lat="47.38162" lon="-1.50773">
        <ele>6</ele>
        <time>2024-02-04T13:53:15Z</time>
      </trkpt>
      <trkpt lat="47.38184" lon="-1.50787">
        <ele>6</ele>
        <time>2024-02-04T13:53:47Z</time>
      </trkpt>
      <trkpt lat="47.38233" lon="-1.50842">
        <ele>6</ele>
        <time>2024-02-04T13:55:09Z</time>
      </trkpt>
      <trkpt lat="47.38249" lon="-1.50867">
        <ele>6</ele>
        <time>2024-02-04T13:55:40Z</time>
      </trkpt>
      <trkpt lat="47.38276" lon="-1.50989">
        <ele>7</ele>
        <time>2024-02-04T13:57:36Z</time>
      </trkpt>
      <trkpt lat="47.3829" lon="-1.51008">
        <ele>8</ele>
        <time>2024-02-04T13:58:02Z</time>
      </trkpt>
      <trkpt lat="47.38305" lon="-1.51022">
        <ele>8</ele>
        <time>2024-02-04T13:58:25Z</time>
      </trkpt>
      <trkpt lat="47.38322" lon="-1.51043">
        <ele>8</ele>
        <time>2024-02-04T13:58:55Z</time>
      </trkpt>
      <trkpt lat="47.38343" lon="-1.51042">
        <ele>8</ele>
        <time>2024-02-04T13:59:23Z</time>
      </trkpt>
      <trkpt lat="47.38358" lon="-1.51059">
        <ele>8</ele>
        <time>2024-02-04T13:59:48Z</time>
      </trkpt>
      <trkpt lat="47.38384" lon="-1.51105">
        <ele>7</ele>
        <time>2024-02-04T14:00:42Z</time>
      </trkpt>
      <trkpt lat="47.38406" lon="-1.51161">
        <ele>5</ele>
        <time>2024-02-04T14:01:41Z</time>
      </trkpt>
      <trkpt lat="47.38457" lon="-1.51268">
        <ele>6</ele>
        <time>2024-02-04T14:03:39Z</time>
      </trkpt>
      <trkpt lat="47.38472" lon="-1.51291">
        <ele>6</ele>
        <time>2024-02-04T14:04:08Z</time>
      </trkpt>
      <trkpt lat="47.38505" lon="-1.51329">
        <ele>7</ele>
        <time>2024-02-04T14:05:04Z</time>
      </trkpt>
      <trkpt lat="47.3857" lon="-1.51498">
        <ele>6</ele>
        <time>2024-02-04T14:07:59Z</time>
      </trkpt>
      <trkpt lat="47.38587" lon="-1.51555">
        <ele>7</ele>
        <time>2024-02-04T14:08:55Z</time>
      </trkpt>
      <trkpt lat="47.38611" lon="-1.51606">
        <ele>7</ele>
        <time>2024-02-04T14:09:52Z</time>
      </trkpt>
      <trkpt lat="47.38639" lon="-1.51685">
        <ele>8</ele>
        <time>2024-02-04T14:11:12Z</time>
      </trkpt>
      <trkpt lat="47.38652" lon="-1.51712">
        <ele>8</ele>
        <time>2024-02-04T14:11:42Z</time>
      </trkpt>
      <trkpt lat="47.38677" lon="-1.51797">
        <ele>8</ele>
        <time>2024-02-04T14:13:06Z</time>
      </trkpt>
      <trkpt lat="47.38703" lon="-1.51854">
        <ele>8</ele>
        <time>2024-02-04T14:14:08Z</time>
      </trkpt>
      <trkpt lat="47.38712" lon="-1.51888">
        <ele>8</ele>
        <time>2024-02-04T14:14:41Z</time>
      </trkpt>
      <trkpt lat="47.38732" lon="-1.51945">
        <ele>8</ele>
        <time>2024-02-04T14:15:39Z</time>
      </trkpt>
      <trkpt lat="47.38745" lon="-1.51968">
        <ele>7</ele>
        <time>2024-02-04T14:16:06Z</time>
      </trkpt>
      <trkpt lat="47.38765" lon="-1.52058">
        <ele>8</ele>
        <time>2024-02-04T14:17:32Z</time>
      </trkpt>
      <trkpt lat="47.38778" lon="-1.52148">
        <ele>8</ele>
        <time>2024-02-04T14:18:55Z</time>
      </trkpt>
      <trkpt lat="47.38792" lon="-1.52209">
        <ele>8</ele>
        <time>2024-02-04T14:19:53Z</time>
      </trkpt>
      <trkpt lat="47.38802" lon="-1.52266">
        <ele>9</ele>
        <time>2024-02-04T14:20:46Z</time>
      </trkpt>
      <trkpt lat="47.38818" lon="-1.52392">
        <ele>10</ele>
        <time>2024-02-04T14:22:42Z</time>
      </trkpt>
      <trkpt lat="47.38819" lon="-1.52418">
        <ele>10</ele>
        <time>2024-02-04T14:23:05Z</time>
      </trkpt>
      <trkpt lat="47.38833" lon="-1.52482">
        <ele>11</ele>
        <time>2024-02-04T14:24:06Z</time>
      </trkpt>
      <trkpt lat="47.3885" lon="-1.5261">
        <ele>11</ele>
        <time>2024-02-04T14:26:04Z</time>
      </trkpt>
      <trkpt lat="47.38874" lon="-1.52666">
        <ele>11</ele>
        <time>2024-02-04T14:27:04Z</time>
      </trkpt>
      <trkpt lat="47.38883" lon="-1.52726">
        <ele>13</ele>
        <time>2024-02-04T14:27:59Z</time>
      </trkpt>
      <trkpt lat="47.38866" lon="-1.52743">
        <ele>14</ele>
        <time>2024-02-04T14:28:27Z</time>
      </trkpt>
      <trkpt lat="47.38786" lon="-1.52742">
        <ele>17</ele>
        <time>2024-02-04T14:30:14Z</time>
      </trkpt>
      <trkpt lat="47.38729" lon="-1.52754">
        <ele>20</ele>
        <time>2024-02-04T14:31:30Z</time>
      </trkpt>
      <trkpt lat="47.38646" lon="-1.52757">
        <ele>22</ele>
        <time>2024-02-04T14:33:21Z</time>
      </trkpt>
      <trkpt lat="47.38535" lon="-1.52766">
        <ele>24</ele>
        <time>2024-02-04T14:35:50Z</time>
      </trkpt>
      <trkpt lat="47.38513" lon="-1.52764">
        <ele>24</ele>
        <time>2024-02-04T14:36:19Z</time>
      </trkpt>
      <trkpt lat="47.38385" lon="-1.52769">
        <ele>24</ele>
        <time>2024-02-04T14:39:10Z</time>
      </trkpt>
      <trkpt lat="47.38323" lon="-1.52767">
        <ele>24</ele>
        <time>2024-02-04T14:40:33Z</time>
      </trkpt>
      <trkpt lat="47.38302" lon="-1.52771">
        <ele>24</ele>
        <time>2024-02-04T14:41:01Z</time>
      </trkpt>
      <trkpt lat="47.38278" lon="-1.52768">
        <ele>23</ele>
        <time>2024-02-04T14:41:33Z</time>
      </trkpt>
      <trkpt lat="47.38223" lon="-1.52775">
        <ele>22</ele>
        <time>2024-02-04T14:42:47Z</time>
      </trkpt>
      <trkpt lat="47.38201" lon="-1.52781">
        <ele>21</ele>
        <time>2024-02-04T14:43:17Z</time>
      </trkpt>
      <trkpt lat="47.38161" lon="-1.5281">
        <ele>20</ele>
        <time>2024-02-04T14:44:16Z</time>
      </trkpt>
      <trkpt lat="47.3809" lon="-1.52875">
        <ele>20</ele>
        <time>2024-02-04T14:46:08Z</time>
      </trkpt>
      <trkpt lat="47.38069" lon="-1.52888">
        <ele>21</ele>
        <time>2024-02-04T14:46:38Z</time>
      </trkpt>
      <trkpt lat="47.38047" lon="-1.52896">
        <ele>21</ele>
        <time>2024-02-04T14:47:08Z</time>
      </trkpt>
      <trkpt lat="47.38012" lon="-1.52916">
        <ele>22</ele>
        <time>2024-02-04T14:47:58Z</time>
      </trkpt>
      <trkpt lat="47.38031" lon="-1.52779">
        <ele>22</ele>
      </trkpt>
      <trkpt lat="47.37726" lon="-1.52794">
        <ele>22</ele>
      </trkpt>
      <trkpt lat="47.3759" lon="-1.52991">
        <ele>20.6</ele>
      </trkpt>
      <trkpt lat="47.3742" lon="-1.53377">
        <ele>14.1</ele>
      </trkpt>
      <trkpt lat="47.37646" lon="-1.53695">
        <ele>25.5</ele>
      </trkpt>
      <trkpt lat="47.3758" lon="-1.53787">
        <ele>27.2</ele>
      </trkpt>
      <trkpt lat="47.37672" lon="-1.53995">
        <ele>35.6</ele>
      </trkpt>
      <trkpt lat="47.37586" lon="-1.54066">
        <ele>32.1</ele>
      </trkpt>
      <trkpt lat="47.37447" lon="-1.54051">
        <ele>27.9</ele>
      </trkpt>
      <trkpt lat="47.37294" lon="-1.54079">
        <ele>23.7</ele>
      </trkpt>
      <trkpt lat="47.37265" lon="-1.54038">
        <ele>24.6</ele>
      </trkpt>
      <trkpt lat="47.37156" lon="-1.54077">
        <ele>22.5</ele>
      </trkpt>
      <trkpt lat="47.37109" lon="-1.54156">
        <ele>19</ele>
      </trkpt>
      <trkpt lat="47.37034" lon="-1.54131">
        <ele>17.8</ele>
      </trkpt>
      <trkpt lat="47.36659" lon="-1.54356">
        <ele>19</ele>
      </trkpt>
      <trkpt lat="47.3622" lon="-1.54203">
        <ele>27</ele>
      </trkpt>
      <trkpt lat="47.36188" lon="-1.5415">
        <ele>27</ele>
      </trkpt>
      <trkpt lat="47.36194" lon="-1.53965">
        <ele>26.3</ele>
      </trkpt>
      <trkpt lat="47.36192" lon="-1.53783">
        <ele>27.2</ele>
      </trkpt>
      <trkpt lat="47.36005" lon="-1.53815">
        <ele>29.8</ele>
      </trkpt>
      <trkpt lat="47.35479" lon="-1.53517">
        <ele>31.6</ele>
      </trkpt>
      <trkpt lat="47.34842" lon="-1.53332">
        <ele>35.2</ele>
        <time>2024-02-04T18:36:37Z</time>
      </trkpt>
      <trkpt lat="47.34785" lon="-1.53094">
        <ele>27.1</ele>
        <time>2024-02-04T18:38:02Z</time>
      </trkpt>
      <trkpt lat="47.34535" lon="-1.53">
        <ele>25.3</ele>
      </trkpt>
      <trkpt lat="47.34471" lon="-1.52914">
        <ele>22</ele>
      </trkpt>
      <trkpt lat="47.3424" lon="-1.53134">
        <ele>21</ele>
        <time>2024-02-04T18:50:05Z</time>
      </trkpt>
      <trkpt lat="47.34221" lon="-1.53136">
        <ele>20</ele>
        <time>2024-02-04T18:50:30Z</time>
        <extensions>
          <visugpx:TrkExtension xmlns:visugpx="https://www.visugpx.com/editgpx/">
            <visugpx:node>1</visugpx:node>
            </visugpx:TrkExtension>
        </extensions>
      </trkpt>
    </trkseg>
  </trk>
</gpx>